| time (UTC) | temp F | wind direction | speed knots | gust knots | rain 1hr in | rain 24hr in | rain mn in | humidity % | barometer mb |
| 20260504214010 | 71 | 114 | 4.3 | 7.8 | 125.90 | 0.00 | 0.00 | 29 | 1006.7 |
| 20260504213011 | 71 | 250 | 2.6 | 7.8 | 125.90 | 0.00 | 0.00 | 29 | 1006.7 |
| 20260504212510 | 72 | 271 | 3.5 | 9.6 | 125.90 | 0.00 | 0.00 | 28 | 1006.8 |
| 20260504212010 | 71 | 221 | 4.3 | 8.7 | 125.90 | 0.00 | 0.00 | 29 | 1006.8 |
| 20260504211511 | 71 | 273 | 4.3 | 14.8 | 125.90 | 0.00 | 0.00 | 28 | 1006.8 |
| 20260504211009 | 72 | 235 | 7.0 | 12.2 | 125.90 | 0.00 | 0.00 | 26 | 1006.8 |
| 20260504210511 | 71 | 232 | 1.7 | 12.2 | 125.90 | 0.00 | 0.00 | 29 | 1006.8 |
| 20260504210011 | 71 | 274 | 6.1 | 14.8 | 125.90 | 0.00 | 0.00 | 28 | 1006.7 |
| 20260504205509 | 70 | 287 | 9.6 | 14.8 | 125.90 | 0.00 | 0.00 | 27 | 1006.7 |
| 20260504205009 | 70 | 285 | 3.5 | 14.8 | 125.90 | 0.00 | 0.00 | 29 | 1006.8 |
| 20260504204511 | 70 | 252 | 4.3 | 9.6 | 125.90 | 0.00 | 0.00 | 28 | 1006.7 |
| 20260504204009 | 71 | 290 | 2.6 | 15.6 | 125.90 | 0.00 | 0.00 | 30 | 1006.7 |
| 20260504203012 | 71 | 266 | 6.1 | 9.6 | 125.90 | 0.00 | 0.00 | 26 | 1006.7 |
| 20260504202509 | 70 | 284 | 4.3 | 12.2 | 125.90 | 0.00 | 0.00 | 28 | 1006.7 |
| 20260504202009 | 69 | 284 | 6.1 | 13.9 | 125.90 | 0.00 | 0.00 | 29 | 1006.7 |
| 20260504201511 | 70 | 273 | 3.5 | 13.9 | 125.90 | 0.00 | 0.00 | 29 | 1006.8 |
| 20260504201009 | 70 | 273 | 3.5 | 16.5 | 125.90 | 0.00 | 0.00 | 30 | 1006.8 |
| 20260504200012 | 71 | 212 | 5.2 | 13.9 | 125.90 | 0.00 | 0.00 | 29 | 1006.7 |
| 20260504195009 | 72 | 274 | 9.6 | 12.2 | 125.90 | 0.00 | 0.00 | 26 | 1006.8 |
| 20260504194511 | 72 | 277 | 6.1 | 13.9 | 125.90 | 0.00 | 0.00 | 25 | 1006.8 |
| 20260504193510 | 71 | 264 | 3.5 | 12.2 | 125.90 | 0.00 | 0.00 | 28 | 1006.8 |
| 20260504193010 | 71 | 298 | 6.1 | 11.3 | 125.90 | 0.00 | 0.00 | 26 | 1006.8 |
| 20260504192509 | 71 | 276 | 5.2 | 13.9 | 125.90 | 0.00 | 0.00 | 27 | 1006.8 |
| 20260504192009 | 71 | 255 | 4.3 | 11.3 | 125.90 | 0.00 | 0.00 | 27 | 1006.9 |
| 20260504191510 | 72 | 273 | 5.2 | 13.9 | 125.90 | 0.00 | 0.00 | 25 | 1006.8 |
| 20260504190509 | 71 | 288 | 7.8 | 12.2 | 125.90 | 0.00 | 0.00 | 24 | 1006.8 |
| 20260504190012 | 71 | 264 | 7.0 | 13.0 | 125.90 | 0.00 | 0.00 | 26 | 1006.9 |
| 20260504185509 | 71 | 270 | 7.0 | 13.9 | 125.90 | 0.00 | 0.00 | 28 | 1007.0 |
| 20260504185009 | 71 | 177 | 6.1 | 15.6 | 125.90 | 0.00 | 0.00 | 27 | 1007.1 |
| 20260504184510 | 71 | 274 | 7.8 | 12.2 | 125.90 | 0.00 | 0.00 | 27 | 1007.1 |
| 20260504184011 | 70 | 293 | 7.0 | 14.8 | 125.90 | 0.00 | 0.00 | 28 | 1007.1 |
| 20260504183509 | 70 | 273 | 7.8 | 16.5 | 125.90 | 0.00 | 0.00 | 24 | 1007.3 |
| 20260504183010 | 71 | 274 | 7.8 | 13.0 | 125.90 | 0.00 | 0.00 | 26 | 1007.3 |
| 20260504182509 | 70 | 278 | 3.5 | 11.3 | 125.90 | 0.00 | 0.00 | 26 | 1007.3 |
| 20260504182009 | 70 | 294 | 6.1 | 20.9 | 125.90 | 0.00 | 0.00 | 27 | 1007.4 |
| 20260504181512 | 71 | 290 | 8.7 | 13.0 | 125.90 | 0.00 | 0.00 | 26 | 1007.4 |
| 20260504180010 | 70 | 222 | 4.3 | 20.0 | 125.90 | 0.00 | 0.00 | 30 | 1007.3 |
| 20260504174510 | 69 | 278 | 7.8 | 20.0 | 125.90 | 0.00 | 0.00 | 27 | 1007.4 |
| 20260504174009 | 69 | 274 | 9.6 | 19.1 | 125.90 | 0.00 | 0.00 | 29 | 1007.4 |
| 20260504173509 | 69 | 195 | 7.0 | 13.9 | 125.90 | 0.00 | 0.00 | 28 | 1007.5 |
| 20260504173010 | 69 | 270 | 4.3 | 12.2 | 125.90 | 0.00 | 0.00 | 30 | 1007.6 |
| 20260504172509 | 69 | 174 | 6.1 | 13.9 | 125.90 | 0.00 | 0.00 | 27 | 1007.6 |
| 20260504171510 | 68 | 256 | 9.6 | 17.4 | 125.90 | 0.00 | 0.00 | 27 | 1007.5 |
| 20260504171009 | 68 | 264 | 6.1 | 18.2 | 125.90 | 0.00 | 0.00 | 29 | 1007.6 |
| 20260504170509 | 68 | 269 | 8.7 | 18.2 | 125.90 | 0.00 | 0.00 | 26 | 1007.9 |
| 20260504151009 | 64 | 287 | 6.1 | 19.1 | 125.90 | 0.00 | 0.00 | 36 | 1008.9 |
| 20260504150509 | 64 | 259 | 4.3 | 12.2 | 125.90 | 0.00 | 0.00 | 38 | 1009.0 |
| 20260504130509 | 56 | 302 | 7.8 | 12.2 | 125.90 | 0.00 | 0.00 | 44 | 1010.1 |
| 20260504110509 | 45 | 194 | 3.5 | 7.0 | 125.90 | 0.00 | 0.00 | 70 | 1010.5 |
| 20260504100509 | 43 | 211 | 1.7 | 1.7 | 125.90 | 0.00 | 0.00 | 78 | 1010.5 |
| 20260504081510 | 42 | 198 | 0.0 | 0.9 | 125.90 | 0.00 | 0.00 | 75 | 1010.6 |
| 20260504050010 | 35 | 285 | 0.9 | 1.7 | 125.90 | 0.00 | 0.00 | 92 | 1010.6 |
| 20260504044511 | 35 | 0 | 0.0 | 0.0 | 125.90 | 0.00 | 0.00 | 90 | 1010.6 |
| 20260504044008 | 35 | 257 | 0.0 | 0.9 | 125.90 | 0.00 | 0.00 | 90 | 1010.6 |
| 20260504043009 | 35 | 277 | 1.7 | 4.3 | 125.90 | 0.00 | 0.00 | 89 | 1010.6 |
| 20260504042008 | 35 | 284 | 2.6 | 2.6 | 125.90 | 0.00 | 0.00 | 88 | 1010.6 |
| 20260504041511 | 35 | 267 | 0.9 | 2.6 | 125.90 | 0.00 | 0.00 | 88 | 1010.6 |
| 20260504040014 | 35 | 304 | 1.7 | 2.6 | 125.90 | 0.00 | 0.00 | 88 | 1010.4 |
| 20260504034513 | 35 | 288 | 1.7 | 2.6 | 125.90 | 0.00 | 0.00 | 89 | 1010.4 |
| 20260504033508 | 35 | 300 | 1.7 | 3.5 | 125.90 | 0.00 | 0.00 | 88 | 1010.3 |
| 20260504033014 | 35 | 295 | 2.6 | 2.6 | 125.90 | 0.00 | 0.00 | 88 | 1010.4 |
| 20260504032508 | 35 | 263 | 0.9 | 1.7 | 125.90 | 0.00 | 0.00 | 89 | 1010.4 |
| 20260504032008 | 35 | 266 | 1.7 | 2.6 | 125.90 | 0.00 | 0.00 | 87 | 1010.3 |
| 20260504031514 | 36 | 276 | 1.7 | 2.6 | 125.90 | 0.00 | 0.00 | 87 | 1010.2 |
| 20260504030508 | 36 | 252 | 0.9 | 1.7 | 125.90 | 0.00 | 0.00 | 87 | 1010.2 |
| 20260504030010 | 36 | 276 | 1.7 | 2.6 | 125.90 | 0.00 | 0.00 | 86 | 1010.2 |
| 20260504025508 | 37 | 285 | 1.7 | 2.6 | 125.90 | 0.00 | 0.00 | 85 | 1010.2 |
| 20260504025008 | 37 | 276 | 1.7 | 2.6 | 125.90 | 0.00 | 0.00 | 84 | 1010.2 |
| 20260504024508 | 37 | 274 | 1.7 | 2.6 | 125.90 | 0.00 | 0.00 | 84 | 1010.2 |
| 20260504024008 | 37 | 277 | 1.7 | 2.6 | 125.90 | 0.00 | 0.00 | 83 | 1010.2 |
| 20260504023508 | 38 | 278 | 1.7 | 2.6 | 125.90 | 0.00 | 0.00 | 81 | 1010.2 |
| 20260504023008 | 38 | 274 | 1.7 | 2.6 | 125.90 | 0.00 | 0.00 | 81 | 1010.2 |
| 20260504022508 | 38 | 294 | 1.7 | 2.6 | 125.90 | 0.00 | 0.00 | 79 | 1010.1 |
| 20260504022008 | 38 | 280 | 1.7 | 2.6 | 125.90 | 0.00 | 0.00 | 79 | 1010.1 |
| 20260504021508 | 39 | 287 | 1.7 | 2.6 | 125.90 | 0.00 | 0.00 | 79 | 1010.2 |
| 20260504021008 | 39 | 283 | 2.6 | 2.6 | 125.90 | 0.00 | 0.00 | 78 | 1010.1 |
| 20260504020508 | 39 | 269 | 1.7 | 2.6 | 125.90 | 0.00 | 0.00 | 77 | 1010.1 |
| 20260504020009 | 40 | 276 | 0.0 | 1.7 | 125.90 | 0.00 | 0.00 | 76 | 1010.2 |
| 20260504015508 | 40 | 276 | 1.7 | 1.7 | 125.90 | 0.00 | 0.00 | 75 | 1010.0 |
| 20260504015008 | 40 | 290 | 1.7 | 1.7 | 125.90 | 0.00 | 0.00 | 72 | 1010.0 |
| 20260504014508 | 40 | 301 | 1.7 | 2.6 | 125.90 | 0.00 | 0.00 | 72 | 1010.0 |
| 20260504014008 | 41 | 276 | 1.7 | 2.6 | 125.90 | 0.00 | 0.00 | 71 | 1010.0 |
| 20260504013508 | 41 | 283 | 1.7 | 2.6 | 125.90 | 0.00 | 0.00 | 70 | 1010.0 |
| 20260504013010 | 41 | 276 | 1.7 | 1.7 | 125.90 | 0.00 | 0.00 | 69 | 1009.9 |
| 20260504012508 | 42 | 0 | 0.0 | 0.0 | 125.90 | 0.00 | 0.00 | 65 | 1009.9 |
| 20260504012008 | 42 | 0 | 0.0 | 0.0 | 125.90 | 0.00 | 0.00 | 64 | 1009.8 |
| 20260504011508 | 42 | 0 | 0.0 | 0.0 | 125.90 | 0.00 | 0.00 | 65 | 1009.7 |
| 20260504011008 | 43 | 0 | 0.0 | 0.0 | 125.90 | 0.00 | 0.00 | 62 | 1009.7 |
| 20260504010508 | 43 | 0 | 0.0 | 0.0 | 125.90 | 0.00 | 0.00 | 63 | 1009.6 |
| 20260504010009 | 43 | 0 | 0.0 | 0.0 | 125.90 | 0.00 | 0.00 | 61 | 1009.6 |
| 20260504005508 | 44 | 0 | 0.0 | 0.0 | 125.90 | 0.00 | 0.00 | 60 | 1009.6 |
| 20260504005008 | 44 | 0 | 0.0 | 0.0 | 125.90 | 0.00 | 0.00 | 60 | 1009.4 |
| 20260504004508 | 45 | 0 | 0.0 | 0.0 | 125.90 | 0.00 | 0.00 | 59 | 1009.4 |
| 20260504003508 | 45 | 0 | 0.0 | 0.0 | 125.90 | 0.00 | 0.00 | 56 | 1009.2 |
| 20260504003008 | 46 | 0 | 0.0 | 0.0 | 125.90 | 0.00 | 0.00 | 55 | 1009.2 |
| 20260504002508 | 46 | 0 | 0.0 | 0.0 | 125.90 | 0.00 | 0.00 | 54 | 1009.2 |
| 20260504002008 | 46 | 0 | 0.0 | 0.0 | 125.90 | 0.00 | 0.00 | 53 | 1009.1 |
| 20260504001508 | 47 | 0 | 0.0 | 0.0 | 125.90 | 0.00 | 0.00 | 54 | 1009.0 |
| 20260504001008 | 47 | 0 | 0.0 | 0.0 | 125.90 | 0.00 | 0.00 | 53 | 1008.9 |
| 20260504000508 | 48 | 0 | 0.0 | 0.0 | 125.90 | 0.00 | 0.00 | 51 | 1009.0 |
| 20260504000008 | 49 | 0 | 0.0 | 0.0 | 125.90 | 0.00 | 0.00 | 50 | 1008.9 |
| 20260503235508 | 49 | 0 | 0.0 | 0.0 | 125.90 | 0.00 | 0.00 | 49 | 1008.9 |
| 20260503235008 | 49 | 0 | 0.0 | 0.0 | 125.90 | 0.00 | 0.00 | 49 | 1008.9 |
| 20260503234508 | 50 | 1 | 0.0 | 1.7 | 125.90 | 0.00 | 0.00 | 48 | 1008.8 |
| 20260503234008 | 50 | 280 | 0.0 | 5.2 | 125.90 | 0.00 | 0.00 | 46 | 1008.8 |
| 20260503233507 | 50 | 262 | 1.7 | 6.1 | 125.90 | 0.00 | 0.00 | 44 | 1008.8 |
| 20260503233008 | 50 | 278 | 0.9 | 4.3 | 125.90 | 0.00 | 0.00 | 45 | 1008.7 |
| 20260503232008 | 50 | 304 | 2.6 | 6.1 | 125.90 | 0.00 | 0.00 | 43 | 1008.6 |
| 20260503231508 | 51 | 284 | 2.6 | 5.2 | 125.90 | 0.00 | 0.00 | 42 | 1008.6 |
| 20260503231007 | 51 | 287 | 0.0 | 7.8 | 125.90 | 0.00 | 0.00 | 43 | 1008.5 |
| 20260503230508 | 51 | 281 | 3.5 | 8.7 | 125.90 | 0.00 | 0.00 | 41 | 1008.5 |
| 20260503230008 | 51 | 267 | 5.2 | 11.3 | 125.90 | 0.00 | 0.00 | 42 | 1008.4 |
| 20260503225008 | 51 | 271 | 5.2 | 7.8 | 125.90 | 0.00 | 0.00 | 41 | 1008.4 |
| 20260503224508 | 51 | 280 | 2.6 | 12.2 | 125.90 | 0.00 | 0.00 | 40 | 1008.4 |
| 20260503224007 | 52 | 269 | 7.0 | 12.2 | 125.90 | 0.00 | 0.00 | 40 | 1008.3 |
| 20260503223507 | 52 | 269 | 5.2 | 13.0 | 125.90 | 0.00 | 0.00 | 39 | 1008.2 |
| 20260503223008 | 52 | 293 | 2.6 | 7.8 | 125.90 | 0.00 | 0.00 | 39 | 1008.2 |
| 20260503222507 | 53 | 297 | 6.1 | 10.4 | 125.90 | 0.00 | 0.00 | 38 | 1008.1 |
| 20260503222007 | 53 | 255 | 4.3 | 11.3 | 125.90 | 0.00 | 0.00 | 39 | 1007.9 |
| 20260503221508 | 52 | 255 | 2.6 | 20.0 | 125.90 | 0.00 | 0.00 | 40 | 1007.9 |
| 20260503221007 | 52 | 329 | 4.3 | 7.0 | 125.90 | 0.00 | 0.00 | 41 | 1008.0 |
| 20260503220012 | 52 | 293 | 1.7 | 10.4 | 125.90 | 0.00 | 0.00 | 39 | 1007.9 |
| 20260503215007 | 53 | 281 | 3.5 | 11.3 | 125.90 | 0.00 | 0.00 | 38 | 1007.7 |
| 20260503214509 | 53 | 307 | 3.5 | 16.5 | 125.90 | 0.00 | 0.00 | 41 | 1007.7 |